QPF
0.00 0.00 0.00 0.00 0.00 0.00 0.00 0.00 0.00 0.00 0.00 0.00 0.01 0.01 0.00 0.00 0.00 0.00 0.00 0.00 0.00 0.01 0.01 0.01 0.00 0.00 0.00 0.00 0.00 0.00 0.01 0.01 0.01 0.02 0.03 0.02 0.04 0.05 0.04 0.04 0.03 0.03 0.05 0.04
0.00 0.00 0.00 0.00 0.00 0.00 0.00 0.00 0.00 0.00 0.00 0.00 0.00 0.00 0.00 0.00 0.00 0.00 0.00 0.00 0.00 0.00 0.00 0.01 0.01 0.01 0.00 0.00 0.00 0.00 0.01 0.01 0.01 0.02 0.03 0.02 0.04 0.04 0.04 0.04 0.04 0.04 0.06 0.05
0.00 0.00 0.00 0.00 0.00 0.00 0.00 0.00 0.00 0.00 0.00 0.00 0.00 0.00 0.00 0.00 0.00 0.00 0.00 0.00 0.00 0.00 0.00 0.01 0.02 0.02 0.02 0.01 0.01 0.01 0.02 0.02 0.03 0.03 0.03 0.03 0.04 0.03 0.03 0.04 0.03 0.03 0.04 0.04
0.00 0.00 0.00 0.00 0.00 0.00 0.00 0.00 0.00 0.00 0.00 0.00 0.00 0.00 0.00 0.00 0.00 0.00 0.00 0.00 0.01 0.01 0.01 0.01 0.02 0.02 0.02 0.02 0.02 0.02 0.04 0.04 0.04 0.03 0.03 0.03 0.04 0.03 0.02 0.03 0.03 0.04 0.05 0.04
0.00 0.00 0.00 0.00 0.00 0.00 0.00 0.00 0.00 0.00 0.00 0.00 0.00 0.00 0.00 0.00 0.00 0.00 0.00 0.00 0.00 0.01 0.01 0.01 0.03 0.04 0.05 0.04 0.03 0.03 0.04 0.04 0.04 0.05 0.05 0.05 0.03 0.03 0.03 0.03 0.03 0.03 0.03 0.03
0.00 0.00 0.00 0.00 0.00 0.00 0.00 0.00 0.00 0.00 0.00 0.00 0.00 0.00 0.00 0.00 0.00 0.00 0.00 0.00 0.00 0.00 0.00 0.01 0.03 0.05 0.04 0.04 0.03 0.03 0.04 0.05 0.06 0.05 0.05 0.05 0.04 0.04 0.04 0.04 0.04 0.04 0.04 0.04
0.00 0.00 0.00 0.00 0.00 0.00 0.00 0.00 0.00 0.00 0.00 0.00 0.00 0.00 0.00 0.00 0.00 0.00 0.00 0.00 0.00 0.01 0.01 0.02 0.02 0.02 0.02 0.03 0.03 0.03 0.03 0.04 0.04 0.05 0.05 0.04 0.03 0.03 0.03 0.03 0.04 0.04 0.05 0.05
0.00 0.00 0.00 0.00 0.00 0.00 0.00 0.00 0.00 0.00 0.00 0.00 0.00 0.00 0.00 0.00 0.00 0.00 0.01 0.01 0.01 0.01 0.01 0.01 0.01 0.01 0.01 0.01 0.02 0.03 0.03 0.03 0.04 0.03 0.04 0.04 0.04 0.04 0.02 0.02 0.02 0.03 0.03 0.04
0.00 0.00 0.00 0.00 0.00 0.00 0.00 0.00 0.00 0.00 0.00 0.00 0.00 0.01 0.01 0.00 0.00 0.00 0.01 0.01 0.01 0.01 0.01 0.01 0.01 0.01 0.01 0.01 0.03 0.04 0.03 0.03 0.03 0.03 0.03 0.04 0.05 0.05 0.04 0.02 0.01 0.02 0.03 0.06
0.00 0.00 0.00 0.00 0.00 0.00 0.00 0.00 0.00 0.00 0.01 0.01 0.00 0.01 0.01 0.00 0.01 0.01 0.01 0.01 0.02 0.02 0.01 0.01 0.01 0.01 0.01 0.02 0.02 0.02 0.01 0.02 0.02 0.03 0.02 0.02 0.02 0.03 0.02 0.02 0.02 0.02 0.03 0.06
0.01 0.00 0.00 0.00 0.00 0.00 0.00 0.00 0.00 0.00 0.01 0.01 0.01 0.01 0.00 0.00 0.01 0.01 0.01 0.02 0.02 0.01 0.01 0.01 0.01 0.01 0.01 0.01 0.00 0.01 0.01 0.02 0.02 0.01 0.01 0.01 0.01 0.01 0.02 0.02 0.02 0.03 0.04 0.04
0.01 0.01 0.00 0.00 0.00 0.00 0.00 0.00 0.00 0.01 0.01 0.01 0.01 0.01 0.00 0.00 0.01 0.01 0.02 0.02 0.01 0.01 0.01 0.01 0.01 0.01 0.00 0.01 0.00 0.01 0.02 0.02 0.02 0.01 0.01 0.01 0.01 0.01 0.02 0.02 0.01 0.02 0.01 0.02
0.02 0.02 0.02 0.01 0.01 0.00 0.00 0.00 0.00 0.00 0.00 0.01 0.01 0.02 0.01 0.01 0.01 0.01 0.02 0.02 0.01 0.01 0.01 0.01 0.01 0.01 0.01 0.01 0.01 0.01 0.01 0.01 0.01 0.01 0.01 0.01 0.01 0.01 0.01 0.01 0.01 0.02 0.01 0.01
0.02 0.02 0.02 0.03 0.02 0.01 0.00 0.00 0.00 0.01 0.01 0.02 0.02 0.02 0.02 0.02 0.02 0.02 0.01 0.02 0.02 0.02 0.01 0.01 0.01 0.01 0.01 0.01 0.01 0.01 0.01 0.02 0.02 0.02 0.01 0.01 0.01 0.01 0.01 0.01 0.01 0.01 0.01 0.01
0.02 0.01 0.01 0.02 0.02 0.02 0.01 0.00 0.01 0.01 0.01 0.02 0.02 0.02 0.01 0.02 0.01 0.01 0.01 0.02 0.01 0.02 0.02 0.02 0.02 0.01 0.01 0.01 0.01 0.02 0.02 0.02 0.03 0.02 0.01 0.01 0.01 0.01 0.01 0.02 0.02 0.02 0.02 0.01
0.02 0.02 0.01 0.01 0.01 0.01 0.01 0.01 0.01 0.01 0.02 0.02 0.02 0.02 0.01 0.01 0.01 0.01 0.02 0.02 0.02 0.02 0.03 0.02 0.02 0.01 0.01 0.01 0.01 0.01 0.02 0.02 0.02 0.02 0.02 0.03 0.03 0.03 0.03 0.03 0.03 0.03 0.03 0.02
0.02 0.02 0.02 0.01 0.01 0.01 0.01 0.01 0.01 0.01 0.01 0.02 0.03 0.02 0.02 0.02 0.02 0.03 0.03 0.03 0.03 0.03 0.03 0.02 0.01 0.01 0.01 0.01 0.01 0.01 0.01 0.01 0.02 0.02 0.03 0.03 0.04 0.05 0.06 0.05 0.04 0.03 0.04 0.02
0.01 0.02 0.02 0.02 0.02 0.02 0.01 0.00 0.01 0.01 0.01 0.02 0.03 0.03 0.03 0.04 0.04 0.04 0.04 0.04 0.04 0.04 0.03 0.02 0.02 0.01 0.01 0.00 0.00 0.00 0.01 0.01 0.01 0.02 0.02 0.02 0.03 0.06 0.08 0.06 0.05 0.04 0.03 0.03
0.01 0.01 0.02 0.01 0.02 0.01 0.01 0.01 0.01 0.03 0.02 0.02 0.03 0.03 0.04 0.04 0.06 0.07 0.06 0.05 0.04 0.03 0.02 0.02 0.02 0.01 0.01 0.01 0.01 0.01 0.01 0.00 0.00 0.01 0.01 0.02 0.02 0.03 0.04 0.04 0.04 0.04 0.03 0.03
0.01 0.01 0.01 0.02 0.02 0.02 0.02 0.01 0.01 0.02 0.03 0.03 0.03 0.03 0.04 0.05 0.06 0.06 0.05 0.04 0.03 0.02 0.02 0.01 0.01 0.01 0.01 0.01 0.01 0.01 0.00 0.01 0.01 0.01 0.01 0.01 0.02 0.02 0.02 0.02 0.03 0.04 0.04 0.04
0.03 0.02 0.01 0.01 0.02 0.03 0.01 0.00 0.01 0.04 0.04 0.03 0.03 0.03 0.04 0.05 0.05 0.04 0.02 0.02 0.01 0.01 0.01 0.01 0.01 0.01 0.01 0.01 0.01 0.01 0.01 0.01 0.01 0.01 0.01 0.01 0.02 0.03 0.03 0.03 0.02 0.03 0.04 0.05
0.02 0.02 0.02 0.02 0.02 0.02 0.02 0.01 0.02 0.03 0.03 0.03 0.03 0.03 0.03 0.04 0.03 0.02 0.02 0.01 0.01 0.01 0.01 0.01 0.01 0.01 0.01 0.01 0.01 0.01 0.01 0.02 0.01 0.01 0.01 0.01 0.01 0.02 0.03 0.04 0.03 0.03 0.03 0.04
0.01 0.02 0.03 0.03 0.02 0.02 0.02 0.02 0.03 0.03 0.03 0.03 0.03 0.02 0.02 0.02 0.02 0.01 0.01 0.01 0.01 0.00 0.00 0.00 0.00 0.00 0.01 0.01 0.01 0.02 0.02 0.01 0.01 0.01 0.02 0.02 0.02 0.03 0.03 0.04 0.05 0.04 0.04 0.05
0.01 0.01 0.02 0.02 0.02 0.02 0.01 0.02 0.02 0.02 0.02 0.01 0.01 0.01 0.01 0.01 0.01 0.01 0.01 0.01 0.00 0.00 0.00 0.00 0.00 0.01 0.01 0.01 0.01 0.01 0.01 0.01 0.01 0.02 0.03 0.04 0.04 0.04 0.05 0.05 0.06 0.06 0.05 0.05
0.01 0.01 0.02 0.03 0.03 0.02 0.02 0.01 0.01 0.02 0.01 0.01 0.01 0.01 0.01 0.01 0.01 0.02 0.01 0.01 0.01 0.00 0.00 0.01 0.01 0.01 0.01 0.01 0.01 0.01 0.01 0.01 0.02 0.03 0.04 0.05 0.06 0.07 0.08 0.08 0.09 0.11 0.12 0.11
0.01 0.03 0.05 0.05 0.04 0.04 0.03 0.02 0.02 0.02 0.02 0.02 0.02 0.01 0.01 0.02 0.03 0.02 0.02 0.02 0.01 0.01 0.00 0.01 0.01 0.01 0.01 0.01 0.02 0.02 0.01 0.01 0.02 0.02 0.03 0.04 0.05 0.08 0.09 0.10 0.11 0.11 0.13 0.15
MSLP
1005.97 1006.14 1006.27 1006.40 1006.56 1006.78 1007.06 1007.38 1007.70 1007.95 1008.08 1008.05 1007.83 1007.46 1006.99 1006.50 1006.08 1005.82 1005.77 1005.96 1006.37 1006.98 1007.73 1008.55 1009.39 1010.21 1010.98 1011.69 1012.35 1012.94 1013.47 1013.94 1014.33 1014.65 1014.90 1015.08 1015.21 1015.31 1015.40 1015.50 1015.62 1015.76 1015.89 1016.02
1005.75 1005.82 1005.89 1005.99 1006.17 1006.45 1006.82 1007.26 1007.69 1008.04 1008.23 1008.22 1007.99 1007.57 1007.02 1006.43 1005.91 1005.54 1005.40 1005.51 1005.87 1006.43 1007.16 1007.98 1008.83 1009.67 1010.47 1011.22 1011.92 1012.57 1013.15 1013.68 1014.14 1014.53 1014.83 1015.06 1015.23 1015.35 1015.46 1015.56 1015.68 1015.80 1015.94 1016.08
1005.38 1005.38 1005.41 1005.51 1005.74 1006.11 1006.60 1007.16 1007.70 1008.14 1008.39 1008.39 1008.13 1007.64 1007.00 1006.30 1005.66 1005.18 1004.93 1004.96 1005.25 1005.77 1006.46 1007.27 1008.12 1008.97 1009.80 1010.59 1011.34 1012.05 1012.71 1013.31 1013.85 1014.31 1014.69 1014.97 1015.18 1015.33 1015.45 1015.56 1015.68 1015.81 1015.96 1016.12
1004.86 1004.82 1004.84 1004.98 1005.29 1005.77 1006.39 1007.08 1007.74 1008.26 1008.55 1008.55 1008.24 1007.68 1006.93 1006.12 1005.36 1004.76 1004.42 1004.35 1004.57 1005.03 1005.69 1006.47 1007.32 1008.18 1009.03 1009.86 1010.66 1011.44 1012.17 1012.86 1013.48 1014.02 1014.46 1014.81 1015.06 1015.25 1015.38 1015.50 1015.63 1015.78 1015.95 1016.14
1004.23 1004.17 1004.21 1004.42 1004.82 1005.43 1006.18 1006.99 1007.75 1008.34 1008.67 1008.66 1008.31 1007.68 1006.84 1005.92 1005.05 1004.35 1003.91 1003.76 1003.90 1004.30 1004.91 1005.66 1006.48 1007.35 1008.21 1009.08 1009.93 1010.76 1011.57 1012.34 1013.04 1013.66 1014.17 1014.58 1014.87 1015.09 1015.24 1015.38 1015.53 1015.70 1015.91 1016.15
1003.55 1003.49 1003.57 1003.84 1004.35 1005.06 1005.93 1006.86 1007.70 1008.35 1008.70 1008.69 1008.31 1007.62 1006.71 1005.71 1004.77 1003.99 1003.46 1003.23 1003.30 1003.64 1004.19 1004.90 1005.69 1006.54 1007.40 1008.28 1009.17 1010.05 1010.93 1011.76 1012.54 1013.23 1013.80 1014.26 1014.60 1014.85 1015.03 1015.19 1015.36 1015.56 1015.81 1016.10
1002.89 1002.83 1002.94 1003.28 1003.87 1004.67 1005.63 1006.62 1007.53 1008.22 1008.58 1008.57 1008.18 1007.47 1006.54 1005.50 1004.51 1003.69 1003.11 1002.82 1002.83 1003.10 1003.59 1004.23 1004.97 1005.78 1006.63 1007.50 1008.40 1009.32 1010.23 1011.12 1011.96 1012.71 1013.34 1013.85 1014.24 1014.52 1014.73 1014.92 1015.11 1015.35 1015.65 1015.99
1002.34 1002.27 1002.40 1002.77 1003.39 1004.23 1005.22 1006.25 1007.18 1007.88 1008.26 1008.26 1007.89 1007.19 1006.27 1005.25 1004.27 1003.44 1002.84 1002.52 1002.48 1002.69 1003.11 1003.68 1004.35 1005.10 1005.90 1006.75 1007.63 1008.55 1009.48 1010.40 1011.28 1012.08 1012.76 1013.32 1013.75 1014.08 1014.33 1014.55 1014.79 1015.06 1015.40 1015.79
1001.96 1001.87 1001.97 1002.32 1002.92 1003.74 1004.71 1005.71 1006.62 1007.31 1007.69 1007.72 1007.39 1006.75 1005.89 1004.94 1004.02 1003.23 1002.65 1002.32 1002.25 1002.41 1002.75 1003.24 1003.83 1004.50 1005.22 1006.01 1006.85 1007.74 1008.67 1009.60 1010.50 1011.33 1012.07 1012.68 1013.16 1013.54 1013.84 1014.11 1014.39 1014.71 1015.09 1015.52
1001.80 1001.65 1001.69 1001.96 1002.48 1003.22 1004.09 1005.02 1005.86 1006.51 1006.89 1006.95 1006.68 1006.13 1005.38 1004.54 1003.73 1003.02 1002.50 1002.20 1002.12 1002.23 1002.51 1002.91 1003.40 1003.97 1004.61 1005.31 1006.08 1006.92 1007.81 1008.72 1009.63 1010.49 1011.26 1011.92 1012.47 1012.92 1013.28 1013.62 1013.95 1014.32 1014.73 1015.20
1001.87 1001.63 1001.56 1001.71 1002.10 1002.69 1003.42 1004.22 1004.96 1005.55 1005.91 1006.00 1005.81 1005.38 1004.77 1004.08 1003.41 1002.83 1002.40 1002.14 1002.07 1002.16 1002.38 1002.70 1003.09 1003.55 1004.07 1004.67 1005.35 1006.10 1006.93 1007.81 1008.71 1009.58 1010.38 1011.10 1011.72 1012.24 1012.69 1013.10 1013.50 1013.92 1014.38 1014.88
1002.12 1001.77 1001.57 1001.57 1001.79 1002.20 1002.77 1003.41 1004.03 1004.55 1004.88 1005.00 1004.89 1004.58 1004.14 1003.61 1003.10 1002.66 1002.34 1002.16 1002.12 1002.19 1002.36 1002.61 1002.90 1003.25 1003.66 1004.14 1004.70 1005.36 1006.11 1006.93 1007.79 1008.65 1009.48 1010.25 1010.94 1011.55 1012.09 1012.58 1013.06 1013.55 1014.06 1014.59
1002.49 1002.03 1001.70 1001.55 1001.59 1001.83 1002.21 1002.70 1003.19 1003.63 1003.94 1004.08 1004.06 1003.87 1003.58 1003.22 1002.87 1002.58 1002.37 1002.27 1002.27 1002.35 1002.49 1002.67 1002.88 1003.12 1003.41 1003.76 1004.20 1004.74 1005.39 1006.12 1006.92 1007.76 1008.60 1009.41 1010.16 1010.86 1011.50 1012.09 1012.66 1013.22 1013.79 1014.37
1002.92 1002.36 1001.92 1001.63 1001.53 1001.60 1001.84 1002.18 1002.57 1002.93 1003.22 1003.39 1003.43 1003.36 1003.20 1002.99 1002.79 1002.63 1002.54 1002.52 1002.56 1002.65 1002.77 1002.89 1003.03 1003.17 1003.35 1003.57 1003.88 1004.29 1004.81 1005.44 1006.16 1006.95 1007.77 1008.60 1009.41 1010.18 1010.92 1011.61 1012.28 1012.92 1013.56 1014.18
1003.33 1002.71 1002.19 1001.82 1001.61 1001.58 1001.70 1001.94 1002.25 1002.56 1002.83 1003.01 1003.11 1003.12 1003.07 1002.98 1002.90 1002.86 1002.85 1002.90 1002.98 1003.08 1003.19 1003.27 1003.34 1003.40 1003.46 1003.57 1003.74 1004.00 1004.39 1004.90 1005.51 1006.23 1007.01 1007.84 1008.68 1009.52 1010.33 1011.12 1011.88 1012.62 1013.32 1014.01
1003.69 1003.05 1002.50 1002.09 1001.84 1001.75 1001.82 1002.01 1002.27 1002.54 1002.80 1002.99 1003.13 1003.19 1003.21 1003.21 1003.22 1003.24 1003.30 1003.40 1003.51 1003.62 1003.70 1003.75 1003.76 1003.74 1003.71 1003.69 1003.74 1003.86 1004.11 1004.48 1004.98 1005.61 1006.33 1007.14 1007.99 1008.86 1009.74 1010.60 1011.45 1012.26 1013.04 1013.79
1003.98 1003.35 1002.82 1002.43 1002.19 1002.11 1002.18 1002.35 1002.59 1002.85 1003.09 1003.29 1003.44 1003.53 1003.59 1003.63 1003.68 1003.74 1003.84 1003.95 1004.07 1004.17 1004.24 1004.25 1004.21 1004.12 1004.00 1003.88 1003.80 1003.80 1003.91 1004.16 1004.55 1005.07 1005.73 1006.49 1007.32 1008.21 1009.13 1010.05 1010.96 1011.85 1012.70 1013.51
1004.19 1003.61 1003.14 1002.81 1002.63 1002.60 1002.70 1002.89 1003.13 1003.39 1003.62 1003.81 1003.95 1004.04 1004.10 1004.14 1004.19 1004.26 1004.36 1004.46 1004.57 1004.65 1004.69 1004.66 1004.57 1004.42 1004.23 1004.03 1003.86 1003.75 1003.76 1003.89 1004.18 1004.62 1005.20 1005.91 1006.72 1007.61 1008.54 1009.50 1010.45 1011.39 1012.29 1013.15
1004.35 1003.84 1003.45 1003.21 1003.11 1003.15 1003.29 1003.52 1003.77 1004.02 1004.24 1004.41 1004.52 1004.58 1004.61 1004.63 1004.66 1004.70 1004.76 1004.83 1004.90 1004.95 1004.94 1004.88 1004.74 1004.55 1004.31 1004.05 1003.82 1003.65 1003.59 1003.65 1003.87 1004.24 1004.77 1005.44 1006.23 1007.10 1008.04 1009.00 1009.98 1010.94 1011.88 1012.78
1004.49 1004.06 1003.76 1003.61 1003.59 1003.69 1003.88 1004.13 1004.38 1004.62 1004.81 1004.94 1005.01 1005.03 1005.01 1004.99 1004.97 1004.96 1004.97 1004.99 1005.01 1005.00 1004.95 1004.84 1004.66 1004.44 1004.17 1003.90 1003.65 1003.46 1003.38 1003.42 1003.61 1003.96 1004.47 1005.12 1005.88 1006.75 1007.68 1008.64 1009.62 1010.60 1011.55 1012.48
1004.65 1004.29 1004.07 1003.99 1004.04 1004.18 1004.40 1004.64 1004.88 1005.08 1005.22 1005.30 1005.32 1005.28 1005.22 1005.14 1005.06 1004.99 1004.94 1004.89 1004.84 1004.77 1004.66 1004.51 1004.31 1004.07 1003.80 1003.54 1003.32 1003.16 1003.11 1003.19 1003.41 1003.78 1004.30 1004.95 1005.73 1006.59 1007.51 1008.48 1009.46 1010.43 1011.39 1012.32
1004.84 1004.55 1004.39 1004.36 1004.44 1004.60 1004.81 1005.02 1005.21 1005.36 1005.44 1005.46 1005.42 1005.33 1005.20 1005.07 1004.93 1004.80 1004.67 1004.55 1004.43 1004.29 1004.12 1003.92 1003.69 1003.45 1003.21 1003.00 1002.84 1002.77 1002.80 1002.96 1003.25 1003.69 1004.26 1004.95 1005.75 1006.62 1007.56 1008.52 1009.50 1010.48 1011.44 1012.37
1005.09 1004.86 1004.75 1004.74 1004.82 1004.95 1005.12 1005.27 1005.39 1005.46 1005.47 1005.42 1005.32 1005.17 1004.99 1004.80 1004.60 1004.40 1004.21 1004.01 1003.80 1003.59 1003.36 1003.11 1002.87 1002.65 1002.45 1002.31 1002.25 1002.28 1002.43 1002.71 1003.12 1003.65 1004.30 1005.06 1005.90 1006.80 1007.76 1008.74 1009.73 1010.71 1011.68 1012.62
1005.41 1005.22 1005.13 1005.13 1005.18 1005.27 1005.36 1005.43 1005.46 1005.45 1005.37 1005.25 1005.08 1004.88 1004.65 1004.40 1004.14 1003.88 1003.60 1003.32 1003.03 1002.73 1002.44 1002.15 1001.90 1001.69 1001.55 1001.50 1001.54 1001.71 1002.00 1002.42 1002.95 1003.60 1004.35 1005.18 1006.07 1007.02 1008.01 1009.02 1010.03 1011.04 1012.04 1013.01
1005.78 1005.64 1005.56 1005.54 1005.55 1005.57 1005.57 1005.54 1005.47 1005.36 1005.20 1005.00 1004.77 1004.51 1004.23 1003.93 1003.60 1003.26 1002.91 1002.54 1002.15 1001.77 1001.41 1001.09 1000.82 1000.63 1000.55 1000.58 1000.75 1001.05 1001.48 1002.03 1002.70 1003.46 1004.30 1005.20 1006.16 1007.15 1008.18 1009.23 1010.28 1011.34 1012.38 1013.40
1006.17 1006.08 1006.02 1005.97 1005.93 1005.87 1005.77 1005.64 1005.47 1005.26 1005.02 1004.74 1004.44 1004.12 1003.78 1003.42 1003.02 1002.60 1002.15 1001.68 1001.20 1000.73 1000.30 999.93 999.65 999.48 999.46 999.58 999.85 1000.27 1000.84 1001.52 1002.29 1003.15 1004.07 1005.04 1006.04 1007.08 1008.15 1009.24 1010.35 1011.46 1012.57 1013.66
Thickness
5767 5762 5761 5769 5774 5777 5777 5774 5773 5779 5789 5783 5782 5784 5791 5796 5797 5796 5795 5794 5793 5792 5795 5795 5793 5790 5787 5782 5778 5774 5769 5765 5761 5758 5754 5750 5747 5745 5743 5742 5739 5737 5736 5734
5755 5756 5770 5776 5774 5770 5769 5766 5770 5777 5782 5776 5776 5779 5789 5791 5790 5791 5790 5790 5790 5790 5789 5788 5786 5785 5782 5778 5774 5770 5766 5763 5760 5757 5753 5749 5746 5743 5741 5740 5736 5734 5733 5731
5754 5766 5772 5766 5762 5759 5762 5764 5767 5767 5772 5775 5771 5770 5780 5786 5789 5788 5789 5789 5789 5787 5784 5781 5779 5778 5777 5774 5771 5768 5763 5760 5756 5753 5749 5745 5741 5739 5737 5735 5733 5731 5730 5729
5755 5764 5762 5758 5757 5758 5756 5768 5767 5764 5760 5765 5767 5758 5773 5780 5778 5779 5781 5783 5783 5783 5781 5778 5775 5773 5772 5771 5769 5765 5760 5756 5752 5749 5746 5742 5737 5735 5735 5733 5732 5730 5728 5727
5750 5758 5754 5751 5758 5760 5761 5770 5763 5761 5758 5758 5764 5756 5768 5776 5768 5771 5775 5777 5778 5778 5776 5773 5771 5769 5768 5767 5765 5761 5756 5752 5749 5746 5743 5738 5736 5735 5734 5731 5729 5727 5727 5725
5754 5761 5758 5758 5763 5763 5762 5758 5756 5756 5757 5741 5756 5752 5757 5767 5766 5768 5771 5771 5771 5771 5770 5768 5768 5766 5763 5762 5759 5756 5751 5747 5745 5742 5739 5736 5733 5731 5729 5727 5726 5725 5724 5723
5739 5748 5756 5759 5751 5754 5753 5742 5733 5731 5735 5742 5759 5749 5754 5765 5769 5767 5765 5765 5765 5765 5764 5762 5761 5759 5757 5756 5753 5751 5747 5743 5741 5738 5736 5733 5731 5728 5726 5725 5724 5723 5722 5721
5726 5731 5746 5750 5747 5744 5746 5744 5732 5724 5732 5746 5748 5741 5754 5763 5764 5764 5762 5760 5758 5758 5758 5756 5755 5754 5752 5750 5748 5746 5743 5739 5736 5734 5732 5730 5728 5727 5725 5723 5723 5721 5720 5719
5727 5730 5748 5750 5753 5750 5741 5742 5752 5742 5741 5736 5741 5743 5746 5754 5752 5752 5751 5749 5749 5750 5750 5750 5749 5748 5746 5745 5743 5741 5738 5735 5733 5731 5728 5726 5724 5723 5722 5720 5718 5718 5716 5715
5728 5719 5736 5743 5745 5746 5749 5745 5738 5730 5716 5718 5733 5736 5742 5741 5741 5742 5741 5741 5741 5742 5742 5742 5741 5741 5741 5741 5738 5736 5733 5731 5729 5727 5725 5724 5721 5719 5717 5716 5714 5713 5712 5710
5721 5712 5721 5729 5727 5731 5732 5733 5732 5732 5734 5722 5722 5734 5748 5743 5740 5737 5736 5735 5734 5734 5734 5733 5733 5734 5735 5734 5732 5729 5727 5725 5724 5723 5721 5719 5717 5715 5713 5711 5710 5708 5707 5705
5711 5709 5710 5721 5735 5740 5736 5733 5729 5716 5717 5723 5725 5727 5738 5738 5737 5733 5730 5728 5726 5726 5726 5726 5725 5725 5725 5725 5724 5723 5720 5719 5718 5717 5715 5713 5712 5710 5707 5706 5704 5703 5701 5701
5699 5696 5692 5703 5713 5721 5722 5727 5729 5725 5720 5717 5715 5719 5726 5728 5726 5725 5722 5719 5717 5716 5717 5717 5716 5715 5715 5715 5715 5715 5714 5712 5712 5711 5709 5707 5706 5704 5702 5701 5699 5698 5696 5695
5689 5690 5692 5694 5704 5712 5711 5716 5719 5716 5711 5712 5717 5717 5716 5716 5714 5714 5712 5710 5709 5708 5707 5707 5706 5706 5706 5705 5706 5706 5706 5706 5705 5704 5702 5701 5700 5698 5696 5695 5693 5692 5691 5689
5681 5682 5691 5698 5703 5705 5703 5705 5708 5706 5708 5707 5711 5711 5708 5707 5706 5706 5704 5701 5699 5698 5698 5697 5695 5695 5696 5696 5696 5697 5697 5697 5697 5696 5695 5695 5694 5692 5691 5689 5687 5686 5685 5685
5670 5671 5679 5683 5692 5693 5690 5694 5697 5696 5698 5699 5700 5698 5703 5702 5699 5696 5695 5692 5689 5689 5688 5688 5687 5687 5687 5687 5687 5688 5688 5689 5689 5689 5689 5688 5687 5686 5685 5684 5682 5680 5679 5679
5662 5661 5664 5671 5681 5679 5673 5682 5685 5686 5690 5689 5685 5687 5691 5687 5685 5685 5685 5683 5681 5680 5680 5679 5678 5679 5678 5679 5680 5680 5681 5682 5682 5682 5682 5682 5681 5680 5679 5678 5677 5675 5674 5673
5648 5651 5657 5663 5662 5651 5667 5681 5681 5677 5675 5678 5677 5678 5678 5676 5676 5676 5676 5674 5672 5672 5672 5671 5671 5671 5672 5672 5673 5673 5674 5675 5675 5676 5676 5676 5675 5673 5673 5672 5671 5670 5668 5667
5645 5643 5645 5651 5652 5653 5657 5665 5668 5663 5660 5667 5667 5668 5669 5669 5669 5668 5667 5666 5664 5664 5664 5664 5664 5665 5665 5665 5665 5666 5666 5667 5668 5669 5669 5669 5669 5668 5667 5666 5665 5664 5662 5661
5640 5639 5639 5641 5639 5639 5647 5658 5663 5659 5648 5657 5658 5656 5657 5657 5656 5658 5657 5657 5656 5656 5657 5657 5658 5658 5658 5658 5658 5657 5659 5660 5660 5661 5662 5662 5662 5661 5661 5660 5659 5658 5656 5655
5627 5627 5630 5633 5632 5636 5644 5650 5651 5637 5639 5646 5648 5647 5647 5645 5646 5648 5648 5648 5648 5648 5649 5650 5650 5650 5650 5650 5650 5650 5651 5652 5653 5654 5654 5654 5654 5654 5655 5654 5653 5651 5650 5649
5619 5621 5621 5625 5624 5624 5635 5636 5632 5630 5636 5637 5638 5638 5637 5637 5638 5639 5639 5639 5640 5641 5642 5642 5642 5643 5644 5643 5643 5643 5643 5645 5645 5646 5645 5646 5646 5647 5649 5647 5646 5645 5643 5642
5609 5611 5615 5616 5616 5622 5626 5625 5625 5626 5625 5626 5628 5629 5630 5630 5630 5632 5632 5633 5634 5635 5634 5635 5635 5636 5636 5637 5636 5636 5637 5637 5638 5638 5638 5639 5639 5640 5640 5640 5640 5639 5637 5637
5601 5605 5606 5605 5609 5613 5616 5618 5618 5618 5617 5618 5620 5621 5622 5622 5624 5625 5626 5627 5627 5627 5627 5628 5628 5629 5629 5630 5630 5630 5631 5631 5631 5631 5631 5632 5633 5633 5632 5632 5633 5633 5633 5632
5589 5594 5594 5593 5596 5599 5602 5604 5606 5607 5609 5610 5612 5614 5615 5615 5616 5618 5619 5620 5620 5621 5621 5621 5621 5622 5623 5624 5624 5625 5625 5625 5624 5624 5625 5626 5627 5626 5625 5625 5624 5625 5625 5623
5580 5580 5580 5582 5586 5586 5589 5594 5597 5597 5599 5601 5602 5605 5608 5610 5611 5612 5612 5613 5614 5615 5616 5616 5616 5617 5618 5618 5618 5619 5619 5618 5618 5618 5619 5620 5621 5620 5620 5620 5618 5614 5615 5613